LGTS

Thessaloniki International

Airport
ICAO code
LGTS
IATA Code
SKG
Summary
ICAO Region
EUR
ICAO Territory
Location

Thermi, Central Macedonia

Serving
Thessaloniki
Elevation
22 ft
Coordinates
40° 31' 11" N , 22° 58' 15" E
KCC
Metar
Observation
LGTS 261750Z 15005KT 9999 FEW030 22/15 Q1011 NOSIG
Station
Thessaloniki Airport
Date/Time
2022-09-26 17:50:00
Wind direction
150°
Wind speed
05 kts
Lowest cloud amount
few clouds
Temperature
22°C
Dew point
15°C
Humidity
64%
QNH
1011 hPa
Weather condition
n/a

Description

Thessaloniki International Airport, "Macedonia" (IATA: SKG), formerly known as Mikra Airport (after the municipality of Mikra), is located about 15 km southeast of the city centre of Thessaloniki at Mikra, close to the suburb of Peraia and the municipalities of Pylaia and Thermi.

Climatology

Dry-summer subtropical ”Mediterranean" climate (Köppen climate classification Csa) - characterized by hot, dry summers and mild winters. During the summer, subtropical high pressure cells dominate, making rainfall unlikely except for the occasional thunderstorm. In the winter, periodic storms bring rain (snow at higher elevations).

Runways

Designator Length Width Surface Rops
16/34 2410 60 ASP Yes/Yes
10/28 2440 50 ASP Yes/Yes

Airport map

Aerial View

SKYbrary Partners:

Safety knowledge contributed by: